QPF
0.01 0.00 0.00 0.00 0.00 0.00 0.00 0.00 0.00 0.00 0.00 0.00 0.00 0.00 0.00 0.00 0.00 0.00 0.00 0.00 0.00 0.00 0.00 0.00 0.00 0.00 0.00 0.01 0.01 0.01 0.01 0.01 0.01 0.01 0.01 0.00 0.00 0.00 0.00 0.00 0.00 0.00 0.01
0.02 0.01 0.01 0.01 0.00 0.00 0.00 0.00 0.00 0.00 0.00 0.00 0.00 0.00 0.00 0.00 0.00 0.00 0.00 0.01 0.01 0.00 0.00 0.00 0.00 0.00 0.00 0.00 0.01 0.01 0.01 0.02 0.02 0.02 0.02 0.02 0.01 0.01 0.01 0.01 0.01 0.01 0.01
0.01 0.00 0.01 0.01 0.00 0.00 0.00 0.00 0.00 0.00 0.00 0.00 0.00 0.00 0.00 0.00 0.00 0.00 0.00 0.00 0.02 0.02 0.01 0.00 0.00 0.00 0.00 0.00 0.01 0.01 0.01 0.02 0.02 0.02 0.03 0.03 0.03 0.02 0.03 0.03 0.02 0.02 0.02
0.00 0.00 0.00 0.01 0.00 0.00 0.00 0.00 0.00 0.00 0.00 0.00 0.00 0.00 0.00 0.00 0.00 0.00 0.00 0.00 0.00 0.01 0.02 0.01 0.01 0.01 0.00 0.00 0.00 0.00 0.01 0.02 0.02 0.03 0.03 0.03 0.03 0.04 0.04 0.05 0.06 0.05 0.04
0.00 0.00 0.01 0.01 0.00 0.00 0.00 0.00 0.01 0.00 0.00 0.00 0.00 0.00 0.00 0.00 0.01 0.01 0.00 0.00 0.00 0.00 0.01 0.02 0.01 0.01 0.01 0.01 0.00 0.00 0.00 0.01 0.02 0.02 0.02 0.02 0.03 0.04 0.04 0.05 0.07 0.07 0.06
0.00 0.00 0.00 0.00 0.00 0.00 0.00 0.00 0.00 0.00 0.00 0.00 0.00 0.00 0.00 0.00 0.00 0.00 0.00 0.00 0.00 0.00 0.00 0.00 0.01 0.01 0.01 0.01 0.01 0.01 0.01 0.01 0.01 0.01 0.01 0.02 0.02 0.03 0.03 0.04 0.05 0.07 0.07
0.00 0.00 0.00 0.00 0.00 0.00 0.00 0.00 0.00 0.00 0.00 0.00 0.00 0.00 0.00 0.00 0.00 0.00 0.00 0.00 0.00 0.00 0.00 0.00 0.00 0.00 0.00 0.00 0.01 0.01 0.00 0.00 0.00 0.00 0.00 0.01 0.01 0.01 0.02 0.02 0.03 0.05 0.06
0.00 0.00 0.00 0.00 0.00 0.00 0.00 0.00 0.00 0.00 0.00 0.00 0.00 0.00 0.00 0.00 0.00 0.00 0.00 0.00 0.00 0.00 0.00 0.00 0.00 0.00 0.00 0.00 0.00 0.00 0.00 0.00 0.00 0.00 0.00 0.00 0.00 0.01 0.01 0.01 0.02 0.03 0.05
0.00 0.00 0.00 0.00 0.00 0.00 0.00 0.00 0.00 0.00 0.00 0.00 0.00 0.00 0.00 0.00 0.00 0.00 0.00 0.00 0.00 0.00 0.00 0.00 0.00 0.00 0.00 0.00 0.00 0.00 0.00 0.00 0.00 0.00 0.00 0.00 0.00 0.00 0.01 0.01 0.02 0.02 0.03
0.00 0.00 0.00 0.00 0.00 0.00 0.00 0.00 0.00 0.00 0.00 0.00 0.00 0.00 0.00 0.00 0.00 0.00 0.00 0.00 0.00 0.00 0.00 0.00 0.00 0.00 0.00 0.00 0.00 0.00 0.00 0.00 0.00 0.00 0.00 0.00 0.00 0.01 0.01 0.02 0.02 0.03 0.03
0.00 0.00 0.00 0.00 0.00 0.00 0.00 0.00 0.00 0.00 0.00 0.00 0.00 0.00 0.00 0.00 0.00 0.00 0.00 0.00 0.00 0.00 0.00 0.00 0.00 0.00 0.00 0.00 0.00 0.00 0.00 0.00 0.00 0.00 0.00 0.00 0.01 0.01 0.01 0.02 0.02 0.03 0.03
0.00 0.00 0.00 0.00 0.00 0.00 0.00 0.00 0.00 0.00 0.00 0.00 0.00 0.00 0.00 0.00 0.00 0.00 0.00 0.00 0.00 0.00 0.00 0.00 0.00 0.00 0.00 0.00 0.00 0.00 0.00 0.00 0.00 0.00 0.00 0.00 0.00 0.01 0.01 0.01 0.02 0.02 0.03
0.00 0.00 0.00 0.00 0.00 0.00 0.00 0.00 0.00 0.00 0.00 0.00 0.00 0.00 0.00 0.00 0.00 0.00 0.00 0.00 0.00 0.00 0.00 0.00 0.00 0.00 0.00 0.00 0.00 0.00 0.01 0.01 0.00 0.00 0.00 0.00 0.00 0.00 0.00 0.01 0.01 0.01 0.02
0.00 0.00 0.00 0.00 0.00 0.00 0.00 0.00 0.00 0.00 0.00 0.00 0.00 0.00 0.00 0.00 0.00 0.00 0.00 0.00 0.00 0.00 0.00 0.00 0.00 0.00 0.00 0.00 0.00 0.00 0.01 0.02 0.01 0.01 0.00 0.00 0.00 0.00 0.00 0.00 0.00 0.00 0.01
0.00 0.00 0.00 0.00 0.00 0.00 0.00 0.00 0.00 0.00 0.00 0.00 0.00 0.00 0.00 0.00 0.00 0.00 0.01 0.01 0.02 0.02 0.01 0.00 0.00 0.00 0.00 0.00 0.00 0.00 0.00 0.01 0.02 0.02 0.01 0.00 0.00 0.00 0.00 0.00 0.00 0.00 0.00
0.00 0.00 0.00 0.00 0.00 0.00 0.00 0.00 0.00 0.00 0.00 0.00 0.00 0.01 0.01 0.01 0.02 0.02 0.02 0.03 0.03 0.03 0.03 0.01 0.00 0.00 0.00 0.00 0.00 0.01 0.02 0.02 0.02 0.02 0.02 0.01 0.00 0.00 0.00 0.00 0.00 0.00 0.00
0.00 0.00 0.00 0.00 0.00 0.00 0.00 0.00 0.00 0.00 0.01 0.01 0.01 0.02 0.03 0.03 0.04 0.04 0.04 0.04 0.04 0.04 0.04 0.01 0.01 0.00 0.01 0.02 0.02 0.04 0.04 0.05 0.05 0.05 0.04 0.03 0.02 0.01 0.00 0.00 0.00 0.01 0.01
0.00 0.00 0.00 0.00 0.00 0.00 0.00 0.00 0.01 0.01 0.02 0.03 0.03 0.03 0.03 0.03 0.04 0.04 0.04 0.03 0.02 0.02 0.03 0.03 0.02 0.02 0.03 0.04 0.04 0.05 0.03 0.02 0.04 0.03 0.04 0.03 0.02 0.01 0.01 0.00 0.00 0.00 0.00
0.00 0.00 0.00 0.00 0.00 0.01 0.01 0.01 0.01 0.02 0.02 0.02 0.02 0.02 0.02 0.02 0.03 0.02 0.02 0.01 0.01 0.01 0.02 0.03 0.03 0.04 0.04 0.04 0.05 0.04 0.04 0.06 0.03 0.02 0.02 0.01 0.02 0.01 0.01 0.00 0.00 0.00 0.00
0.00 0.01 0.01 0.01 0.01 0.01 0.01 0.00 0.00 0.01 0.01 0.01 0.01 0.01 0.01 0.01 0.02 0.01 0.01 0.01 0.01 0.02 0.03 0.04 0.05 0.04 0.04 0.03 0.04 0.04 0.04 0.05 0.05 0.03 0.02 0.02 0.02 0.01 0.00 0.00 0.00 0.00 0.00
0.01 0.01 0.01 0.01 0.00 0.00 0.00 0.00 0.00 0.00 0.00 0.00 0.00 0.01 0.01 0.01 0.01 0.01 0.01 0.01 0.01 0.03 0.03 0.04 0.04 0.03 0.02 0.02 0.03 0.03 0.03 0.03 0.02 0.02 0.02 0.03 0.03 0.03 0.03 0.01 0.00 0.00 0.00
0.01 0.00 0.00 0.00 0.00 0.00 0.00 0.00 0.00 0.00 0.00 0.01 0.01 0.01 0.01 0.01 0.01 0.01 0.01 0.02 0.03 0.04 0.04 0.04 0.03 0.02 0.01 0.02 0.03 0.04 0.04 0.05 0.04 0.03 0.04 0.04 0.04 0.04 0.04 0.04 0.03 0.01 0.00
0.00 0.00 0.00 0.00 0.00 0.00 0.00 0.00 0.00 0.00 0.01 0.01 0.02 0.02 0.02 0.01 0.02 0.02 0.02 0.03 0.03 0.03 0.03 0.04 0.04 0.03 0.03 0.04 0.07 0.07 0.07 0.08 0.07 0.06 0.08 0.07 0.05 0.05 0.04 0.03 0.03 0.01 0.01
0.00 0.00 0.00 0.00 0.01 0.01 0.00 0.00 0.00 0.00 0.01 0.01 0.02 0.03 0.03 0.03 0.02 0.02 0.01 0.01 0.01 0.01 0.02 0.03 0.04 0.04 0.05 0.07 0.11 0.12 0.11 0.11 0.09 0.07 0.08 0.07 0.04 0.04 0.03 0.03 0.03 0.01 0.00
0.00 0.00 0.00 0.00 0.01 0.01 0.00 0.00 0.00 0.00 0.00 0.01 0.01 0.01 0.02 0.02 0.02 0.02 0.02 0.01 0.01 0.01 0.01 0.01 0.03 0.06 0.09 0.14 0.15 0.15 0.14 0.13 0.10 0.08 0.07 0.07 0.05 0.04 0.02 0.02 0.01 0.02 0.01
0.00 0.00 0.00 0.01 0.01 0.02 0.01 0.00 0.00 0.00 0.00 0.00 0.00 0.01 0.01 0.03 0.03 0.02 0.01 0.02 0.02 0.02 0.02 0.03 0.07 0.11 0.14 0.18 0.17 0.14 0.12 0.11 0.11 0.11 0.09 0.09 0.07 0.05 0.04 0.03 0.02 0.02 0.02
MSLP
1015.61 1015.72 1015.77 1015.77 1015.79 1015.83 1015.91 1016.01 1016.12 1016.20 1016.22 1016.18 1016.09 1015.97 1015.86 1015.79 1015.79 1015.88 1016.05 1016.29 1016.57 1016.86 1017.13 1017.36 1017.54 1017.68 1017.78 1017.85 1017.90 1017.94 1017.99 1018.04 1018.10 1018.18 1018.28 1018.41 1018.57 1018.76 1018.97 1019.19 1019.41 1019.61 1019.81
1015.56 1015.70 1015.78 1015.81 1015.84 1015.90 1015.99 1016.10 1016.23 1016.33 1016.40 1016.41 1016.36 1016.27 1016.16 1016.07 1016.01 1016.02 1016.10 1016.24 1016.43 1016.65 1016.87 1017.09 1017.29 1017.45 1017.58 1017.68 1017.75 1017.80 1017.84 1017.88 1017.92 1017.99 1018.07 1018.18 1018.31 1018.47 1018.65 1018.83 1019.01 1019.19 1019.36
1015.65 1015.82 1015.92 1015.99 1016.05 1016.13 1016.24 1016.38 1016.52 1016.65 1016.74 1016.77 1016.75 1016.67 1016.54 1016.41 1016.28 1016.19 1016.16 1016.18 1016.27 1016.41 1016.59 1016.78 1016.98 1017.16 1017.31 1017.44 1017.53 1017.59 1017.63 1017.66 1017.70 1017.74 1017.81 1017.90 1018.01 1018.14 1018.28 1018.42 1018.57 1018.70 1018.85
1015.85 1016.04 1016.18 1016.28 1016.38 1016.49 1016.62 1016.77 1016.93 1017.07 1017.16 1017.21 1017.18 1017.08 1016.92 1016.73 1016.53 1016.35 1016.21 1016.13 1016.12 1016.18 1016.30 1016.46 1016.64 1016.82 1016.99 1017.13 1017.23 1017.30 1017.34 1017.37 1017.41 1017.45 1017.51 1017.58 1017.68 1017.78 1017.89 1017.99 1018.09 1018.19 1018.30
1016.11 1016.33 1016.49 1016.64 1016.77 1016.92 1017.07 1017.22 1017.37 1017.50 1017.59 1017.62 1017.57 1017.45 1017.26 1017.02 1016.75 1016.49 1016.26 1016.09 1016.00 1015.98 1016.04 1016.16 1016.32 1016.49 1016.65 1016.79 1016.89 1016.96 1017.01 1017.04 1017.07 1017.12 1017.18 1017.25 1017.33 1017.41 1017.49 1017.55 1017.60 1017.66 1017.74
1016.40 1016.63 1016.83 1017.01 1017.18 1017.35 1017.51 1017.66 1017.80 1017.91 1017.97 1017.97 1017.89 1017.74 1017.53 1017.25 1016.94 1016.63 1016.35 1016.12 1015.96 1015.89 1015.89 1015.97 1016.09 1016.22 1016.36 1016.48 1016.56 1016.62 1016.66 1016.69 1016.73 1016.78 1016.85 1016.93 1017.01 1017.07 1017.12 1017.14 1017.15 1017.16 1017.19
1016.67 1016.91 1017.14 1017.36 1017.56 1017.75 1017.92 1018.06 1018.18 1018.25 1018.28 1018.24 1018.15 1017.98 1017.75 1017.47 1017.15 1016.82 1016.52 1016.26 1016.06 1015.94 1015.89 1015.91 1015.98 1016.07 1016.15 1016.23 1016.28 1016.31 1016.34 1016.36 1016.41 1016.47 1016.56 1016.64 1016.72 1016.78 1016.81 1016.80 1016.76 1016.71 1016.69
1016.91 1017.17 1017.42 1017.67 1017.90 1018.10 1018.28 1018.41 1018.50 1018.54 1018.53 1018.48 1018.36 1018.20 1017.98 1017.72 1017.42 1017.11 1016.81 1016.54 1016.33 1016.17 1016.07 1016.03 1016.02 1016.04 1016.06 1016.07 1016.07 1016.06 1016.06 1016.08 1016.13 1016.20 1016.30 1016.40 1016.49 1016.54 1016.55 1016.51 1016.43 1016.33 1016.25
1017.12 1017.40 1017.68 1017.95 1018.20 1018.41 1018.58 1018.70 1018.77 1018.78 1018.75 1018.68 1018.57 1018.43 1018.24 1018.01 1017.76 1017.49 1017.22 1016.97 1016.74 1016.54 1016.39 1016.28 1016.19 1016.11 1016.04 1015.97 1015.91 1015.85 1015.82 1015.82 1015.87 1015.95 1016.06 1016.18 1016.28 1016.33 1016.33 1016.26 1016.15 1016.00 1015.87
1017.31 1017.60 1017.90 1018.19 1018.45 1018.67 1018.84 1018.94 1018.99 1018.99 1018.94 1018.87 1018.78 1018.66 1018.52 1018.35 1018.15 1017.93 1017.70 1017.45 1017.22 1016.99 1016.78 1016.58 1016.40 1016.22 1016.05 1015.89 1015.75 1015.64 1015.57 1015.55 1015.59 1015.68 1015.80 1015.93 1016.04 1016.10 1016.09 1016.01 1015.87 1015.70 1015.52
1017.48 1017.78 1018.09 1018.38 1018.65 1018.86 1019.01 1019.10 1019.13 1019.12 1019.08 1019.02 1018.95 1018.87 1018.77 1018.66 1018.52 1018.34 1018.14 1017.91 1017.66 1017.39 1017.12 1016.84 1016.56 1016.28 1016.01 1015.76 1015.54 1015.37 1015.26 1015.21 1015.24 1015.33 1015.46 1015.60 1015.71 1015.78 1015.78 1015.71 1015.56 1015.37 1015.17
1017.63 1017.92 1018.22 1018.50 1018.75 1018.95 1019.08 1019.15 1019.17 1019.15 1019.11 1019.07 1019.02 1018.97 1018.92 1018.86 1018.76 1018.63 1018.45 1018.22 1017.95 1017.64 1017.31 1016.96 1016.59 1016.22 1015.87 1015.53 1015.24 1015.01 1014.86 1014.78 1014.79 1014.86 1014.99 1015.13 1015.26 1015.34 1015.36 1015.30 1015.17 1014.99 1014.79
1017.74 1018.01 1018.28 1018.53 1018.75 1018.91 1019.02 1019.07 1019.07 1019.05 1019.01 1018.97 1018.94 1018.92 1018.91 1018.87 1018.81 1018.70 1018.53 1018.31 1018.02 1017.68 1017.30 1016.89 1016.46 1016.02 1015.59 1015.20 1014.85 1014.57 1014.36 1014.25 1014.23 1014.28 1014.39 1014.53 1014.66 1014.76 1014.80 1014.77 1014.68 1014.53 1014.35
1017.80 1018.04 1018.26 1018.47 1018.64 1018.76 1018.83 1018.85 1018.84 1018.80 1018.76 1018.72 1018.70 1018.70 1018.69 1018.68 1018.63 1018.53 1018.37 1018.15 1017.86 1017.51 1017.10 1016.65 1016.18 1015.70 1015.23 1014.79 1014.39 1014.06 1013.82 1013.66 1013.60 1013.61 1013.69 1013.81 1013.93 1014.04 1014.11 1014.12 1014.07 1013.98 1013.86
1017.83 1018.01 1018.18 1018.33 1018.44 1018.52 1018.55 1018.54 1018.50 1018.45 1018.39 1018.35 1018.33 1018.32 1018.31 1018.29 1018.25 1018.16 1018.01 1017.79 1017.51 1017.16 1016.76 1016.31 1015.83 1015.33 1014.84 1014.37 1013.94 1013.57 1013.27 1013.06 1012.95 1012.91 1012.94 1013.03 1013.13 1013.24 1013.33 1013.38 1013.40 1013.37 1013.31
1017.82 1017.95 1018.06 1018.16 1018.22 1018.26 1018.25 1018.22 1018.16 1018.08 1018.01 1017.94 1017.90 1017.87 1017.84 1017.81 1017.76 1017.67 1017.53 1017.33 1017.07 1016.75 1016.37 1015.94 1015.48 1014.99 1014.50 1014.01 1013.56 1013.15 1012.80 1012.53 1012.34 1012.24 1012.21 1012.24 1012.31 1012.41 1012.52 1012.61 1012.68 1012.72 1012.74
1017.83 1017.91 1017.98 1018.04 1018.07 1018.08 1018.05 1017.99 1017.91 1017.81 1017.70 1017.61 1017.52 1017.45 1017.39 1017.33 1017.26 1017.16 1017.03 1016.85 1016.63 1016.34 1016.01 1015.63 1015.20 1014.74 1014.25 1013.76 1013.28 1012.83 1012.42 1012.08 1011.82 1011.64 1011.54 1011.51 1011.54 1011.62 1011.72 1011.84 1011.96 1012.07 1012.16
1017.88 1017.94 1017.99 1018.03 1018.05 1018.05 1018.01 1017.94 1017.84 1017.71 1017.57 1017.43 1017.29 1017.17 1017.05 1016.95 1016.84 1016.73 1016.60 1016.44 1016.25 1016.01 1015.73 1015.39 1015.00 1014.57 1014.10 1013.60 1013.09 1012.60 1012.13 1011.72 1011.38 1011.12 1010.95 1010.86 1010.84 1010.89 1011.00 1011.13 1011.29 1011.45 1011.60
1018.00 1018.06 1018.12 1018.17 1018.21 1018.21 1018.18 1018.11 1017.99 1017.84 1017.65 1017.45 1017.25 1017.05 1016.87 1016.70 1016.55 1016.41 1016.27 1016.12 1015.95 1015.74 1015.50 1015.20 1014.84 1014.43 1013.97 1013.46 1012.92 1012.39 1011.87 1011.40 1011.00 1010.67 1010.44 1010.29 1010.24 1010.26 1010.35 1010.49 1010.66 1010.86 1011.06
1018.20 1018.28 1018.37 1018.45 1018.52 1018.55 1018.54 1018.47 1018.33 1018.15 1017.91 1017.64 1017.36 1017.08 1016.81 1016.57 1016.35 1016.16 1015.99 1015.83 1015.66 1015.48 1015.25 1014.98 1014.64 1014.24 1013.77 1013.25 1012.69 1012.13 1011.57 1011.06 1010.61 1010.24 1009.97 1009.79 1009.71 1009.71 1009.78 1009.92 1010.09 1010.30 1010.52
1018.47 1018.58 1018.71 1018.84 1018.94 1019.00 1019.00 1018.93 1018.77 1018.55 1018.25 1017.91 1017.54 1017.16 1016.80 1016.47 1016.17 1015.92 1015.70 1015.51 1015.33 1015.14 1014.91 1014.64 1014.31 1013.90 1013.43 1012.90 1012.33 1011.74 1011.17 1010.64 1010.17 1009.79 1009.51 1009.32 1009.23 1009.22 1009.29 1009.41 1009.57 1009.76 1009.97
1018.77 1018.92 1019.09 1019.25 1019.38 1019.46 1019.46 1019.38 1019.19 1018.92 1018.56 1018.13 1017.67 1017.20 1016.74 1016.31 1015.93 1015.60 1015.33 1015.09 1014.87 1014.66 1014.42 1014.13 1013.79 1013.38 1012.90 1012.37 1011.80 1011.21 1010.65 1010.13 1009.68 1009.33 1009.06 1008.89 1008.80 1008.80 1008.85 1008.94 1009.07 1009.22 1009.39
1019.08 1019.26 1019.45 1019.63 1019.77 1019.84 1019.83 1019.71 1019.48 1019.15 1018.72 1018.22 1017.67 1017.11 1016.56 1016.04 1015.57 1015.17 1014.83 1014.53 1014.27 1014.02 1013.76 1013.46 1013.11 1012.69 1012.22 1011.70 1011.14 1010.59 1010.06 1009.58 1009.17 1008.86 1008.64 1008.50 1008.43 1008.43 1008.46 1008.52 1008.59 1008.68 1008.77
1019.39 1019.58 1019.77 1019.93 1020.04 1020.08 1020.02 1019.85 1019.57 1019.17 1018.67 1018.10 1017.48 1016.84 1016.22 1015.63 1015.09 1014.62 1014.22 1013.88 1013.57 1013.29 1013.00 1012.69 1012.34 1011.93 1011.47 1010.98 1010.46 1009.96 1009.48 1009.06 1008.72 1008.46 1008.28 1008.19 1008.14 1008.13 1008.14 1008.14 1008.14 1008.13 1008.12
1019.71 1019.88 1020.03 1020.15 1020.21 1020.18 1020.05 1019.81 1019.46 1019.00 1018.44 1017.81 1017.14 1016.45 1015.77 1015.13 1014.54 1014.03 1013.58 1013.20 1012.86 1012.56 1012.26 1011.95 1011.60 1011.22 1010.80 1010.35 1009.89 1009.45 1009.04 1008.68 1008.40 1008.20 1008.07 1008.00 1007.96 1007.93 1007.89 1007.83 1007.73 1007.61 1007.48
1020.04 1020.18 1020.28 1020.33 1020.30 1020.19 1019.98 1019.66 1019.24 1018.72 1018.11 1017.44 1016.73 1016.01 1015.31 1014.64 1014.02 1013.48 1013.01 1012.60 1012.25 1011.94 1011.65 1011.35 1011.04 1010.70 1010.33 1009.94 1009.54 1009.16 1008.82 1008.53 1008.30 1008.14 1008.03 1007.96 1007.91 1007.84 1007.74 1007.60 1007.40 1007.15 1006.89
Thickness
5721 5720 5717 5714 5713 5712 5711 5709 5709 5709 5707 5705 5704 5702 5700 5699 5697 5692 5688 5687 5686 5683 5680 5678 5675 5672 5670 5669 5667 5666 5664 5663 5661 5660 5659 5659 5659 5658 5658 5658 5657 5656 5656
5718 5717 5714 5710 5708 5707 5706 5703 5704 5703 5701 5700 5697 5695 5692 5691 5689 5686 5682 5679 5677 5675 5672 5669 5666 5663 5660 5658 5656 5654 5653 5652 5651 5650 5649 5649 5649 5649 5649 5649 5649 5648 5649
5716 5713 5710 5707 5703 5702 5701 5699 5697 5696 5694 5692 5690 5688 5686 5683 5681 5679 5676 5672 5669 5665 5663 5660 5656 5653 5650 5647 5644 5642 5641 5640 5639 5638 5638 5638 5638 5639 5639 5640 5640 5640 5640
5711 5708 5705 5701 5697 5696 5694 5691 5687 5684 5681 5679 5677 5676 5674 5673 5671 5670 5668 5666 5661 5657 5653 5649 5645 5642 5638 5636 5633 5630 5628 5627 5626 5626 5626 5626 5627 5627 5628 5629 5629 5630 5631
5705 5702 5698 5693 5690 5687 5683 5679 5674 5670 5666 5664 5663 5664 5664 5662 5660 5658 5656 5654 5651 5647 5642 5637 5633 5630 5626 5624 5621 5618 5616 5613 5611 5610 5611 5612 5613 5614 5615 5616 5618 5619 5621
5697 5694 5690 5684 5680 5676 5671 5667 5663 5659 5655 5652 5652 5652 5651 5649 5648 5646 5644 5642 5639 5635 5630 5624 5620 5616 5613 5610 5607 5604 5601 5598 5596 5594 5594 5595 5596 5598 5601 5604 5606 5608 5611
5687 5683 5680 5674 5670 5665 5660 5657 5652 5647 5643 5641 5637 5636 5638 5637 5635 5633 5631 5629 5625 5621 5616 5610 5605 5602 5599 5596 5593 5589 5586 5583 5581 5580 5578 5578 5580 5582 5586 5589 5593 5597 5600
5675 5671 5666 5663 5658 5652 5649 5645 5639 5633 5629 5626 5619 5616 5616 5617 5618 5616 5611 5609 5606 5603 5598 5593 5589 5585 5583 5580 5578 5575 5573 5571 5569 5567 5566 5565 5566 5568 5572 5576 5581 5586 5590
5663 5658 5654 5649 5644 5639 5635 5630 5625 5620 5614 5610 5607 5602 5597 5596 5594 5595 5591 5588 5586 5583 5579 5575 5571 5568 5566 5565 5565 5563 5561 5561 5559 5558 5557 5557 5557 5558 5561 5566 5572 5577 5582
5654 5648 5643 5637 5631 5626 5622 5616 5609 5605 5601 5596 5593 5590 5585 5580 5574 5573 5571 5570 5569 5566 5562 5559 5556 5553 5551 5551 5552 5551 5550 5550 5549 5548 5548 5548 5549 5550 5553 5558 5563 5569 5574
5643 5638 5631 5625 5619 5614 5609 5603 5598 5592 5586 5581 5575 5570 5566 5562 5560 5555 5554 5553 5550 5548 5546 5544 5541 5539 5538 5538 5539 5540 5540 5540 5540 5540 5539 5539 5540 5542 5545 5549 5554 5559 5564
5634 5628 5621 5614 5608 5603 5596 5590 5585 5579 5574 5566 5558 5553 5548 5544 5540 5537 5536 5535 5534 5532 5529 5526 5524 5524 5524 5525 5527 5529 5529 5529 5530 5530 5528 5528 5530 5532 5535 5539 5544 5549 5554
5624 5616 5611 5602 5596 5590 5583 5578 5572 5566 5560 5554 5546 5540 5535 5530 5525 5521 5518 5516 5514 5513 5511 5509 5507 5507 5507 5509 5510 5512 5513 5514 5515 5515 5516 5517 5518 5521 5524 5528 5532 5537 5542
5611 5603 5596 5590 5583 5577 5571 5565 5559 5553 5549 5543 5536 5530 5524 5518 5513 5508 5502 5498 5498 5499 5497 5495 5493 5491 5490 5491 5493 5494 5495 5496 5497 5499 5501 5503 5505 5508 5511 5515 5519 5524 5529
5598 5591 5584 5577 5570 5564 5558 5551 5545 5540 5535 5530 5525 5520 5513 5508 5502 5495 5489 5482 5478 5480 5484 5481 5480 5478 5476 5475 5476 5477 5478 5479 5480 5482 5485 5488 5491 5493 5497 5501 5505 5510 5516
5581 5576 5570 5564 5558 5552 5546 5540 5534 5530 5525 5519 5513 5507 5501 5495 5488 5482 5475 5469 5464 5462 5466 5466 5463 5462 5460 5458 5459 5460 5461 5462 5464 5466 5469 5473 5477 5480 5483 5486 5491 5496 5502
5568 5563 5557 5552 5546 5541 5536 5530 5525 5519 5514 5508 5501 5495 5489 5481 5474 5468 5461 5456 5450 5446 5447 5452 5447 5446 5444 5443 5444 5444 5445 5447 5450 5453 5456 5460 5464 5467 5470 5473 5477 5481 5488
5556 5551 5545 5540 5534 5530 5524 5519 5513 5507 5501 5494 5487 5480 5474 5467 5460 5453 5446 5441 5436 5431 5429 5433 5432 5430 5431 5431 5432 5434 5436 5439 5441 5444 5447 5451 5454 5456 5458 5461 5464 5468 5473
5542 5537 5531 5526 5521 5516 5510 5503 5496 5489 5482 5475 5469 5463 5458 5451 5444 5437 5430 5425 5421 5419 5417 5417 5420 5420 5422 5423 5425 5427 5430 5432 5435 5438 5441 5443 5445 5446 5448 5451 5453 5456 5461
5528 5522 5517 5511 5506 5499 5490 5482 5476 5470 5464 5458 5452 5447 5441 5435 5429 5423 5418 5414 5411 5410 5408 5409 5411 5414 5417 5419 5420 5422 5424 5426 5428 5431 5432 5434 5436 5438 5441 5443 5446 5448 5452
5510 5504 5500 5495 5489 5483 5471 5463 5458 5454 5448 5443 5438 5433 5427 5422 5417 5412 5409 5407 5404 5403 5403 5404 5407 5410 5413 5415 5415 5417 5418 5420 5423 5424 5426 5428 5431 5434 5437 5439 5440 5442 5445
5494 5488 5484 5479 5473 5465 5454 5447 5442 5437 5433 5429 5425 5420 5415 5412 5410 5407 5404 5402 5399 5398 5399 5400 5403 5406 5409 5411 5412 5413 5413 5415 5420 5423 5422 5426 5428 5431 5434 5436 5439 5441 5443
5479 5474 5469 5464 5458 5450 5441 5434 5429 5425 5422 5418 5413 5409 5407 5406 5402 5401 5399 5397 5396 5396 5398 5399 5403 5406 5408 5410 5410 5412 5413 5415 5419 5422 5422 5426 5429 5431 5433 5436 5437 5439 5442
5465 5461 5457 5451 5445 5439 5430 5424 5418 5415 5412 5408 5404 5402 5400 5399 5397 5394 5394 5394 5395 5397 5399 5402 5406 5409 5410 5411 5411 5414 5417 5421 5425 5427 5426 5429 5431 5433 5436 5437 5438 5439 5441
5454 5448 5444 5438 5433 5428 5420 5414 5407 5406 5405 5401 5398 5397 5395 5394 5393 5390 5391 5394 5397 5401 5405 5408 5410 5411 5413 5414 5415 5419 5423 5427 5430 5431 5429 5429 5430 5432 5434 5436 5438 5439 5441
5442 5436 5431 5427 5422 5417 5410 5403 5398 5398 5397 5396 5395 5395 5394 5392 5391 5391 5393 5396 5401 5405 5409 5411 5413 5415 5417 5418 5420 5422 5425 5428 5430 5430 5427 5426 5428 5428 5431 5434 5435 5437 5440